This demonstration page uses our WeatherBlox Daily Observations layout. Learn more.

Left ArrowRight Arrow

39.01783, -85.05884

Hourly Observations for September 1, 2018

Temp ( °F °C ) Dew Point ( °F °C ) Humidity (%) Winds ( mph kmh ) Pressure ( in mb ) Visibility ( mi km ) Precip ( " mm )
12:52 am 00:52 Cloudy 71 21.7 71 21.7 100 100 SSW 5 7 30.09 1019 10 16 N/A
1:52 am 01:52 Cloudy 71 21.7 71 21.7 100 100 SW 3 6 30.09 1019 10 16 N/A
2:52 am 02:52 Cloudy 70 21.1 70 21.1 100 100 S 5 7 30.09 1019 10 16 N/A
3:52 am 03:52 Mostly Cloudy 71 21.7 70 21.1 96 96 SE 9 15 30.06 1018 10 16 N/A
4:52 am 04:52 Partly Cloudy 70 21.1 70 21.1 100 100 SSE 8 13 30.07 1018 10 16 N/A
5:52 am 05:52 Mostly Clear 69 20.6 69 20.6 100 100 SE 5 7 30.08 1019 10 16 N/A
6:52 am 06:52 Partly Cloudy 69 20.6 69 20.6 100 100 S 3 6 30.10 1019 10 16 N/A
7:52 am 07:52 Partly Cloudy 70 21.1 70 21.1 100 100 SSE 3 6 30.12 1020 9 14 N/A
8:52 am 08:52 Mostly Cloudy with Rain 71 21.7 70 21.1 96 96 S 7 11 30.14 1021 3 4 0.02 0.51
8:59 am 08:59 Cloudy with Light Rain 71 21.7 70 21.1 96 96 S 7 11 30.15 1021 5 8 N/A
9:52 am 09:52 Mostly Cloudy with Light Rain 73 22.8 71 21.7 94 94 SSW 9 15 30.16 1021 10 16 0.01 0.25
10:52 am 10:52 Mostly Cloudy 78 25.6 72 22.2 82 82 SW 7 11 30.16 1022 10 16 N/A
11:52 am 11:52 Partly Cloudy 80 26.7 73 22.8 79 79 S 8 13 30.16 1021 10 16 N/A
12:52 pm 12:52 Mostly Cloudy 82 27.8 72 22.2 72 72 SSW 10 17 30.16 1021 10 16 N/A
1:52 pm 13:52 Mostly Cloudy 81 27.2 73 22.8 77 77 S 13 20 30.14 1021 10 16 N/A
2:52 pm 14:52 Mostly Cloudy 81 27.2 73 22.8 77 77 SSW 8 13 30.12 1020 10 16 N/A
3:00 pm 15:00 Mostly Cloudy with Nearby Thunderstorms 81 27.2 73 22.8 77 77 SSW 10 17 30.12 1020 10 16 N/A
3:05 pm 15:05 Mostly Cloudy with Thunderstorms 80 26.7 73 22.8 79 79 SW 10 17 30.12 1020 9 14 N/A
3:34 pm 15:34 Mostly Cloudy with Nearby Thunderstorms 80 26.7 75 23.9 85 85 WSW 5 7 30.12 1020 7 11 0.08 2.03
3:52 pm 15:52 Mostly Cloudy with Nearby Thunderstorms 80 26.7 75 23.9 85 85 SW 6 9 30.13 1020 10 16 0.08 2.03
3:55 pm 15:55 Cloudy with Nearby Thunderstorms 80 26.7 75 23.9 85 85 SW 6 9 30.12 1020 10 16 N/A
4:17 pm 16:17 Mostly Cloudy with Thunderstorms 83 28.3 75 23.9 77 77 SSW 5 7 30.12 1020 10 16 N/A
4:52 pm 16:52 Mostly Cloudy with Thunderstorms 78 25.6 72 22.2 82 82 NNW 6 9 30.11 1020 10 16 N/A
5:30 pm 17:30 Mostly Cloudy with Nearby Thunderstorms 80 26.7 75 23.9 85 85 NNE 7 11 30.12 1020 10 16 0.01 0.25
5:42 pm 17:42 Mostly Cloudy 78 25.6 74 23.3 87 87 ENE 10 17 30.09 1019 10 16 0.01 0.25
5:52 pm 17:52 Mostly Cloudy 79 26.1 74 23.3 85 85 E 8 13 30.11 1020 10 16 0.01 0.25
5:57 pm 17:57 Mostly Cloudy with Nearby Thunderstorms 80 26.7 74 23.3 82 82 E 7 11 30.09 1019 10 16 N/A
6:12 pm 18:12 Partly Cloudy 81 27.2 74 23.3 79 79 ESE 8 13 30.09 1019 10 16 N/A
6:52 pm 18:52 Partly Cloudy 81 27.2 73 22.8 77 77 S 8 13 30.09 1019 10 16 N/A
7:52 pm 19:52 Partly Cloudy 79 26.1 73 22.8 82 82 S 8 13 30.08 1019 10 16 N/A
8:52 pm 20:52 Mostly Clear 76 24.4 73 22.8 91 91 S 9 15 30.08 1019 10 16 N/A
9:52 pm 21:52 Mostly Clear 75 23.9 72 22.2 90 90 S 6 9 30.10 1019 10 16 N/A
10:52 pm 22:52 Mostly Clear 75 23.9 72 22.2 90 90 S 5 7 30.11 1020 10 16 N/A
11:52 pm 23:52 Clear 74 23.3 71 21.7 91 91 S 6 9 30.11 1020 10 16 N/A

Powered by AerisWeather